Skip Page Navigation
NASA JPL Caltech
NASA Logo - Jet Propulsion Laboratory + View the NASA Portal
+ Near-Earth Object (NEO) Program
Search JPL
JPL Home Earth Solar System Stars & Galaxies Technology
JPL Solar System Dynamics
BODIES ORBITS EPHEMERIDES TOOLS PHYSICAL DATA DISCOVERY FAQ SITE MAP
JPL Small-Body Database Browser
Search: [ help ]  
716 Berkeley (1911 MD)
Classification: Main-belt Asteroid          SPK-ID: 2000716
Ephemeris | Orbit Diagram | Orbital Elements | Physical Parameters | Discovery Circumstances | Close-Approach Data ]

[ hide orbit diagram ]
Orbit Diagram
Note: Make sure you have Java enabled on your browser to see the applet. This applet is provided as a 3D orbit visualization tool. The applet was implemented using 2-body methods, and hence should not be used for determining accurate long-term trajectories (over several years or decades) or planetary encounter circumstances. For accurate long-term ephemerides, please instead use our Horizons system.
Orbit Viewer

Additional Notes: the orbits shown in the applet are color coded. The planets are white lines, and the asteroid/comet is a blue line. The bright white line indicates the portion of the orbit that is above the ecliptic plane, and the darker portion is below the ecliptic plane. Likewise for the asteroid/comet orbit, the light blue indicates the portion above the ecliptic plane, and the dark blue the portion below the ecliptic plane.

Orbit Viewer applet originally written and kindly provided by Osamu Ajiki (AstroArts), and further modified by Ron Baalke (JPL).


Orbital Elements at Epoch 2456400.5 (2013-Apr-18.0) TDB
Reference: JPL 1 (heliocentric ecliptic J2000)
 Element Value Uncertainty (1-sigma)   Units 
e .08442188901481197 6.1768e-08  
a 2.812707924843193 1.4646e-08 AU
q 2.575253808580999 1.7511e-07 AU
i 8.480644964608224 6.4372e-06 deg
node 145.997049269852 4.005e-05 deg
peri 57.11466904235493 5.3932e-05 deg
M 312.8599409560704 3.8248e-05 deg
tp 2456626.117614733242
(2013-Nov-29.61761473)
0.00018313 JED
period 1723.000415172934
4.72
1.3458e-05
3.685e-08
d
yr
n .2089378486678238 1.632e-09 deg/d
Q 3.050162041105388 1.5883e-08 AU
  Orbit Determination Parameters
   # obs. used (total)      1316  
   data-arc span      38989 days (106.75 yr)  
   first obs. used      1906-07-16  
   last obs. used      2013-04-14  
   planetary ephem.      DE405  
   SB-pert. ephem.      SB405-CPV-2  
   condition code      0  
   fit RMS      .55743  
   data source      ORB  
   producer      Otto Matic  
   solution date      2013-Apr-29 12:37:56  

Additional Information
 Earth MOID = 1.58512 AU 
 T_jup = 3.299 
[ show covariance matrix ]

Ephemeris | Orbit Diagram | Orbital Elements | Physical Parameters | Discovery Circumstances | Close-Approach Data ]

Physical Parameter Table
Parameter Symbol Value Units Sigma Reference Notes
absolute magnitude H 10.84 mag n/a IRAS-A-FPA-3-RDR-IMPS-V6.0 IRAS observations used: 3
diameter diameter 21.28 km 1.5 IRAS-A-FPA-3-RDR-IMPS-V6.0 IRAS observations used: 3
rotation period rot_per 15.55 h n/a Asteroid Lightcurve DataBase (Rev. 2013-May-01) Result based on less than full coverage, so that the period may be wrong by 30 percent or so.
Published Reference List:
[Garlitz, J. (2011) Posting on CALL web site. http://www.minorplanet.info/call.html]
geometric albedo albedo 0.1801   0.028 IRAS-A-FPA-3-RDR-IMPS-V6.0 IRAS observations used: 3
B-V BV .860 mag .068 EAR-A-5-DDR-UBV-MEAN-VALUES-V1.1 #obs=2; phase (min.=5.11, mean=5.24, max.=5.37) deg.
U-B UB .351 mag .068 EAR-A-5-DDR-UBV-MEAN-VALUES-V1.1 #obs=1; phase=5.11 deg.
Tholen spectral type spec_T S   n/a EAR-A-5-DDR-TAXONOMY-V4.0 used 2 color indices
SMASSII spectral type spec_B S   n/a EAR-A-5-DDR-TAXONOMY-V4.0 based on a high-resolution spectrum by Xu et al. (1995) or Bus and Binzel (2002)

716 Berkeley (1911 MD)          Discovered 1911-Jul-30 by Palisa, J. at Vienna
Reference: DISCOVERY.DBLast Updated: 2003-08-29

[ show close-approach data ]
Alternate Designations
 1911 MD = 1947 CH = 1952 FA = A906 OB 
Ephemeris | Orbit Diagram | Orbital Elements | Physical Parameters | Discovery Circumstances | Close-Approach Data ]
ABOUT SSD CREDITS/AWARDS PRIVACY/COPYRIGHT GLOSSARY LINKS
FirstGov 2013-May-19 06:58 UT
(server date/time)  
NASA Home Page
Site Manager:   Donald K. Yeomans
Webmaster  Alan B. Chamberlin